This demonstration page uses our WeatherBlox Daily Observations layout. Learn more.

Left ArrowRight Arrow

44.8408, -93.29828

Hourly Observations for November 5, 2016

Temp ( °F °C ) Dew Point ( °F °C ) Humidity (%) Winds ( mph kmh ) Pressure ( in mb ) Visibility ( mi km ) Precip ( " mm )
12:53 am 00:53 Partly Cloudy 50 10 40 4.4 68 68 Calm 30.25 1024 10 16 0.00 0.00
1:53 am 01:53 Partly Cloudy 48 8.9 40 4.4 74 74 Calm 30.25 1024 10 16 0.00 0.00
2:53 am 02:53 Mostly Clear 47 8.3 39 3.9 74 74 S 3 6 30.24 1024 10 16 0.00 0.00
3:53 am 03:53 Mostly Clear 45 7.2 40 4.4 83 83 Calm 30.24 1024 10 16 0.00 0.00
4:53 am 04:53 Clear 45 7.2 39 3.9 80 80 Calm 30.24 1024 10 16 0.00 0.00
5:53 am 05:53 Mostly Clear 46 7.8 40 4.4 79 79 Calm 30.25 1024 10 16 0.00 0.00
6:53 am 06:53 Mostly Clear 46 7.8 39 3.9 77 77 Calm 30.26 1025 10 16 0.00 0.00
7:53 am 07:53 Mostly Clear 45 7.2 39 3.9 80 80 Calm 30.26 1025 9 14 0.00 0.00
8:53 am 08:53 Mostly Sunny 46 7.8 41 5 83 83 ESE 3 6 30.27 1025 10 16 0.00 0.00
9:53 am 09:53 Partly Cloudy 50 10 43 6.1 77 77 Calm 30.28 1025 10 16 0.00 0.00
10:53 am 10:53 Mostly Sunny 57 13.9 44 6.7 62 62 Calm 30.28 1025 10 16 0.00 0.00
11:53 am 11:53 Mostly Sunny 61 16.1 43 6.1 52 52 Calm 30.27 1025 10 16 0.00 0.00
12:53 pm 12:53 Mostly Sunny 66 18.9 45 7.2 47 47 Calm 30.25 1024 10 16 0.00 0.00
1:53 pm 13:53 Sunny 70 21.1 45 7.2 41 41 S 5 7 30.21 1023 10 16 0.00 0.00
2:53 pm 14:53 Sunny 72 22.2 43 6.1 35 35 S 7 11 30.20 1023 10 16 0.00 0.00
3:53 pm 15:53 Sunny 72 22.2 41 5 33 33 SW 10 17 30.19 1023 10 16 0.00 0.00
4:53 pm 16:53 Sunny 71 21.7 42 5.6 35 35 SW 7 11 30.19 1023 10 16 0.00 0.00
5:53 pm 17:53 Sunny 68 20 43 6.1 40 40 S 3 6 30.19 1023 10 16 0.00 0.00
6:53 pm 18:53 Clear 62 16.7 43 6.1 50 50 SE 6 9 30.20 1023 10 16 0.00 0.00
7:53 pm 19:53 Clear 62 16.7 43 6.1 50 50 S 7 11 30.21 1023 10 16 0.00 0.00
8:53 pm 20:53 Clear 58 14.4 44 6.7 60 60 SSE 6 9 30.21 1023 10 16 0.00 0.00
9:53 pm 21:53 Clear 59 15 44 6.7 58 58 SE 5 7 30.21 1023 10 16 0.00 0.00
10:53 pm 22:53 Clear 56 13.3 43 6.1 62 62 SE 6 9 30.21 1023 10 16 0.00 0.00
11:53 pm 23:53 Clear 56 13.3 44 6.7 65 65 SE 6 9 30.21 1023 10 16 0.00 0.00

Powered by AerisWeather